EHI
39 39 40 31 15 5 1 1 0 0 0 0 0 0 0 0 0 0 0 0 0 0 0 0 0 0 0 0 0 0 0 0 1 3 3 2 1 0 0 0 0 0 0
49 48 47 37 19 8 3 1 0 0 0 0 0 0 0 0 0 0 0 0 0 0 0 0 0 0 0 0 0 0 0 0 0 1 1 1 0 0 0 0 0 0 0
55 51 49 41 25 12 5 2 0 0 0 0 0 0 0 0 0 0 0 0 0 0 0 0 0 0 0 0 0 0 0 0 0 0 0 0 0 0 0 0 0 0 0
51 46 47 44 29 14 5 2 0 0 0 0 0 0 0 0 0 0 0 0 0 0 0 0 0 0 0 0 0 0 0 0 0 0 0 0 0 0 0 0 0 0 0
48 49 51 47 30 12 3 1 0 0 0 0 0 0 0 0 0 0 0 0 0 0 0 0 0 0 0 0 0 0 0 0 0 0 0 0 0 0 0 0 0 0 0
53 54 53 47 29 10 1 0 0 0 0 0 0 0 0 0 0 0 0 0 0 0 0 0 0 0 0 0 0 0 0 0 0 0 0 0 0 0 0 0 0 0 0
61 56 51 44 27 8 1 0 0 0 0 0 0 0 0 0 0 0 0 0 0 0 0 0 0 0 0 0 0 0 0 0 1 1 0 0 0 0 0 0 0 0 0
69 61 49 37 21 7 1 0 0 0 0 0 0 0 0 0 0 0 0 0 0 0 0 0 0 0 0 0 0 0 1 2 2 1 1 1 0 0 0 0 0 0 0
71 62 46 28 15 7 2 0 0 0 0 0 0 0 0 0 0 0 0 0 0 0 0 0 0 0 0 0 0 0 3 6 4 2 2 1 0 0 0 0 0 0 0
66 56 38 21 12 6 1 0 0 0 0 0 0 0 0 0 0 0 0 0 0 0 0 0 0 0 0 0 0 0 3 5 4 3 4 3 1 0 0 0 0 0 0
62 50 31 19 13 6 2 1 1 0 0 0 0 0 0 0 0 0 0 0 0 0 0 0 0 0 0 0 0 0 1 2 2 4 7 6 3 1 0 0 0 0 0
61 48 33 24 16 10 8 6 3 2 2 1 0 0 0 0 0 0 0 1 0 0 0 0 0 0 0 0 1 0 0 0 1 4 8 8 5 1 0 0 0 0 0
62 54 43 33 24 19 17 12 7 5 4 2 1 1 0 0 0 0 1 1 0 0 0 0 0 0 0 0 0 0 0 1 2 5 7 8 5 2 0 0 0 1 1
63 59 51 42 37 35 27 16 11 9 6 3 3 2 1 1 2 2 2 1 0 0 0 0 0 1 1 1 0 0 1 2 4 5 5 7 6 4 2 1 1 2 2
62 59 55 53 53 50 40 27 19 15 10 8 7 4 3 4 4 5 4 3 2 2 2 0 0 1 2 1 1 0 1 2 4 4 3 5 8 7 3 2 3 3 3
60 59 60 60 60 57 48 38 29 20 15 14 11 7 6 8 9 9 6 4 4 4 3 1 1 1 1 1 1 1 1 2 4 4 3 3 6 6 4 3 3 3 3
59 59 60 59 58 54 46 37 29 21 18 20 18 12 9 12 15 13 9 6 5 5 3 2 1 1 0 1 1 2 2 3 4 3 3 3 4 4 4 4 3 3 3
59 58 56 54 52 48 41 34 28 23 23 26 26 20 15 15 15 13 11 8 6 4 3 2 2 1 0 1 2 2 3 4 4 2 1 3 3 4 4 4 4 4 2
61 58 53 49 47 44 41 40 38 33 32 32 30 26 20 14 12 9 9 8 5 2 2 3 3 1 0 2 2 2 2 2 3 2 1 1 2 3 4 4 5 4 2
61 58 52 47 43 41 42 45 44 38 34 32 30 28 22 13 8 7 6 6 3 1 2 3 3 1 0 1 1 1 0 0 2 3 2 1 1 2 4 4 4 3 1
60 58 51 44 41 40 40 42 40 34 30 29 28 28 21 12 7 6 6 5 3 2 3 3 2 1 0 0 0 0 0 0 2 3 2 1 2 2 4 5 4 2 1
60 56 47 41 39 36 35 36 34 29 27 27 28 25 18 12 8 7 8 7 5 4 3 1 1 0 0 0 0 0 0 0 1 1 1 1 1 1 3 4 4 3 2
59 53 45 41 38 32 27 27 28 26 24 26 27 23 16 11 8 8 8 7 6 6 4 2 1 0 0 0 0 0 0 0 0 0 0 0 1 1 1 2 3 3 2
53 47 43 43 39 29 22 20 21 21 20 23 25 22 17 11 7 6 6 5 5 6 5 2 1 1 0 0 0 0 0 0 0 0 0 0 0 0 0 1 2 2 1
43 41 40 42 39 31 24 20 19 17 17 19 21 21 17 11 8 6 5 5 5 4 3 1 1 1 1 0 0 0 0 1 0 0 0 0 0 0 0 1 1 1 0
36 35 38 41 39 32 27 23 19 17 17 18 19 19 15 10 8 6 6 6 5 3 1 1 2 2 1 0 0 0 0 1 0 0 0 0 0 0 0 1 1 0 0
Wind_Speed
17 17 16 15 14 13 13 13 13 13 13 13 13 12 12 12 12 12 12 12 11 11 11 11 11 11 11 12 13 13 13 14 15 16 16 16 15 14 12 14 15 12 15
21 18 17 15 14 13 14 14 14 14 13 13 12 12 12 11 11 12 12 11 11 11 11 11 11 11 12 12 12 12 12 12 13 15 16 15 14 12 11 12 14 10 14
21 18 17 16 15 14 14 14 14 14 13 13 12 12 11 11 11 11 11 11 11 12 12 12 12 12 12 12 12 11 11 11 12 13 12 10 10 13 15 16 15 14 14
21 18 16 17 16 15 15 14 14 14 13 13 12 11 11 11 11 11 11 11 11 12 12 12 12 12 12 11 11 10 9 9 10 9 5 8 9 13 14 14 13 13 13
19 17 18 19 17 16 15 14 14 14 14 13 12 11 11 10 11 11 11 11 11 12 11 12 12 12 11 10 9 8 7 6 7 6 7 8 8 12 13 13 12 13 13
19 19 19 19 18 17 15 14 14 14 13 13 12 11 11 11 11 11 11 11 11 11 11 12 11 11 11 10 8 6 4 2 3 5 8 8 7 11 12 12 12 12 12
18 18 18 19 18 17 16 15 14 14 13 12 12 11 11 11 11 11 11 11 11 11 11 11 11 10 10 9 7 4 1 1 2 7 8 7 8 11 11 11 11 12 11
18 18 17 18 18 16 16 15 14 14 13 12 12 11 11 11 11 11 11 11 11 10 10 10 10 9 9 7 5 2 1 4 3 10 10 9 10 11 11 11 11 11 11
18 18 15 15 14 15 15 15 14 14 13 12 12 11 11 11 11 11 11 10 10 10 9 9 9 8 7 6 4 1 2 5 1 7 11 8 11 11 11 11 10 10 10
16 17 15 14 13 12 12 14 14 14 13 12 12 11 11 11 11 11 11 9 9 9 8 8 8 7 6 5 3 2 3 5 1 8 8 9 12 12 11 10 10 10 10
12 13 15 15 13 13 12 13 13 12 12 12 10 11 10 7 8 8 11 10 9 8 8 7 6 6 6 6 5 3 3 2 4 6 7 12 13 12 11 10 9 9 9
13 11 11 14 13 12 11 10 7 8 8 7 6 8 5 4 5 8 11 10 9 8 7 7 6 6 6 5 6 5 3 2 4 6 8 14 13 12 10 9 9 9 9
14 11 10 11 10 10 8 8 5 4 5 5 6 5 3 4 5 6 5 6 6 7 5 6 6 5 4 2 2 3 1 1 3 6 9 13 12 12 10 9 9 8 8
12 11 9 8 7 7 8 6 5 4 4 4 4 4 3 2 2 4 3 4 4 3 3 3 2 1 2 2 2 2 1 2 4 6 7 12 11 10 10 10 9 8 8
12 12 10 9 7 6 5 5 6 5 5 5 4 3 4 3 2 3 2 1 2 3 3 2 1 2 1 1 1 3 2 3 4 6 6 11 11 10 10 10 9 9 8
11 10 10 9 9 7 5 3 4 5 3 5 5 4 3 3 3 2 2 1 1 2 2 1 2 2 1 1 1 2 1 3 4 5 6 7 10 10 10 10 9 9 9
11 9 10 9 9 8 7 6 4 4 5 4 4 4 3 3 4 2 2 2 1 2 2 1 2 2 2 2 2 2 1 1 4 4 5 5 6 9 10 9 9 8 9
12 10 9 10 9 7 6 5 4 4 4 4 4 4 3 4 4 2 2 2 1 2 2 1 1 2 1 2 2 2 2 2 3 4 4 5 5 6 8 10 9 9 9
12 11 9 8 9 8 6 4 3 3 3 4 4 4 3 4 4 2 2 2 2 1 1 2 2 1 1 2 3 2 2 2 3 4 4 4 5 6 5 8 10 10 10
11 11 10 9 8 7 5 4 3 4 3 3 3 4 4 3 3 2 3 2 1 1 2 2 2 1 0 1 2 3 2 2 2 2 3 4 5 6 7 7 6 7 10
11 11 10 10 9 7 5 5 5 4 4 3 4 6 5 4 3 1 2 3 1 1 2 2 2 2 2 1 0 2 2 3 3 3 2 2 4 5 6 7 5 5 5
12 11 10 9 9 8 6 5 4 4 4 4 4 5 5 5 4 4 2 3 2 2 2 1 1 1 2 2 1 1 1 1 2 4 3 3 3 3 4 7 5 5 4
12 13 11 10 9 8 8 5 5 3 2 3 5 4 4 5 4 2 3 1 2 2 3 2 1 2 1 1 1 0 1 1 2 1 2 3 2 2 3 4 5 5 5
12 12 11 10 9 9 8 7 8 7 5 6 5 4 5 5 4 4 3 2 1 1 4 3 3 1 1 1 2 1 1 1 1 1 1 3 4 3 2 3 4 5 4
12 12 11 10 9 9 9 8 8 7 5 5 5 6 5 4 4 5 4 3 2 1 3 1 3 1 1 2 1 2 2 1 2 2 2 3 2 3 3 3 3 4 5
10 10 10 10 9 9 9 9 8 8 7 7 7 7 5 4 4 5 5 4 3 2 3 2 2 2 1 2 2 2 0 1 2 2 2 3 3 3 4 3 3 3 4
Wind_Direction
128 129 131 127 124 124 127 126 125 123 120 116 112 109 106 103 99 96 93 93 93 92 91 89 89 87 85 84 85 86 88 91 93 94 96 96 95 96 99 104 99 93 97
127 129 131 128 127 126 128 127 125 126 123 120 117 113 111 108 105 101 98 97 97 95 93 92 90 89 90 91 91 94 96 100 102 104 103 97 92 90 94 95 94 100 100
125 131 132 130 130 128 127 128 128 127 124 123 121 118 116 114 110 106 102 100 99 97 95 95 94 93 93 95 96 100 104 109 113 115 115 106 95 90 92 95 99 103 100
130 137 134 134 132 130 128 128 128 127 126 125 123 121 118 115 111 109 104 101 100 99 98 97 96 96 97 98 100 105 111 118 121 125 125 112 102 98 99 101 103 104 102
133 134 132 138 134 132 130 130 131 130 129 127 125 124 121 118 115 111 107 102 100 100 98 96 96 97 99 100 103 107 116 127 132 134 102 92 96 107 106 108 108 107 106
134 133 137 139 137 135 133 133 132 132 130 128 126 125 123 117 114 111 107 103 101 100 98 98 98 98 100 102 105 109 117 145 154 119 106 106 107 113 113 113 111 109 109
135 133 139 140 139 138 137 136 134 132 130 129 127 126 122 117 114 113 109 107 103 101 100 100 100 102 103 105 108 111 125 270 218 118 113 107 111 116 115 114 112 111 110
133 131 137 140 140 140 140 139 137 135 133 131 128 126 123 121 116 114 112 109 106 104 103 103 103 103 105 108 111 113 301 295 134 117 114 111 119 118 118 117 116 116 115
130 131 139 143 142 142 142 142 141 139 137 137 133 130 129 126 124 120 117 115 113 110 109 110 109 109 112 116 128 170 302 313 338 121 116 116 123 122 122 122 121 121 120
132 136 144 147 146 149 147 146 144 143 141 140 139 139 138 136 135 134 128 123 122 120 121 121 123 125 129 135 154 219 289 304 170 113 114 127 130 129 128 127 127 125 126
133 143 153 149 152 155 152 147 147 147 146 146 149 152 155 157 146 151 127 134 134 133 135 140 146 153 156 166 184 217 257 245 91 102 113 130 134 133 132 132 132 132 132
146 157 153 147 156 158 150 144 153 157 154 170 159 167 181 164 146 132 135 145 148 149 153 166 177 187 201 184 187 207 238 170 128 121 125 136 137 137 137 137 138 139 139
155 153 144 146 158 150 135 150 159 154 157 178 162 173 167 153 147 134 152 153 164 169 179 171 196 214 195 162 169 191 207 99 109 111 132 137 140 143 144 146 147 148 148
148 145 144 142 147 135 140 149 150 148 159 155 159 178 162 156 145 138 150 167 175 171 170 178 202 185 127 148 155 145 113 70 92 110 136 141 145 148 151 154 156 156 153
151 152 149 142 131 126 127 149 154 146 160 152 160 183 161 152 138 130 126 144 171 143 161 180 161 120 105 153 186 147 122 100 111 118 133 149 153 156 159 161 163 162 162
152 148 141 139 132 132 137 148 149 146 148 152 163 162 169 138 124 129 129 133 109 114 106 146 140 132 174 150 101 102 130 136 119 122 140 154 161 163 167 170 173 174 174
151 144 140 140 140 146 154 168 165 157 159 148 138 139 159 135 130 139 137 170 134 123 125 159 136 150 185 170 149 139 126 101 125 136 146 157 164 172 174 177 181 183 185
148 149 153 153 148 157 167 176 167 156 145 136 137 138 149 125 138 159 154 136 146 150 151 143 185 173 157 144 137 148 131 134 140 158 166 169 163 169 180 184 184 187 192
150 154 159 151 155 163 170 174 151 132 130 132 139 137 142 143 148 178 109 107 199 168 160 181 131 116 136 146 151 154 161 159 162 184 166 169 163 161 167 183 191 193 200
152 156 159 157 157 158 165 161 141 132 135 131 129 131 146 152 158 171 134 143 240 145 102 71 86 73 52 209 208 154 165 162 182 167 181 178 171 174 172 172 182 201 209
154 158 161 163 162 162 164 165 160 157 154 149 143 144 155 149 144 218 117 147 251 100 112 139 134 160 223 210 167 157 181 189 174 164 202 177 176 176 165 169 181 183 193
163 164 165 170 168 167 169 170 166 159 166 151 134 144 152 150 158 178 130 176 139 118 113 102 124 212 218 174 169 172 184 177 211 184 169 178 176 169 175 180 175 179 186
168 171 173 173 170 170 168 167 160 149 161 137 138 156 161 158 170 133 139 145 137 174 149 187 202 237 250 176 188 224 140 174 180 159 186 146 150 165 186 169 178 181 181
172 171 171 168 170 171 174 176 169 171 173 164 160 155 158 167 167 149 154 132 146 109 138 201 176 233 260 255 184 161 171 110 144 149 206 163 179 180 189 193 180 171 172
173 171 168 169 173 176 180 180 182 178 171 163 154 149 161 169 174 160 157 150 174 192 134 133 121 249 262 273 293 200 184 177 241 177 185 176 189 178 179 196 174 175 176
171 168 167 166 174 179 181 183 191 183 178 167 159 158 172 166 181 169 161 156 186 173 129 144 144 200 307 342 344 324 195 198 229 217 182 197 193 186 180 179 184 182 183